Location: UBC Liquid-Mirror Observatory
(49.2876°N, 122.5728°W)
Time: 00:25:58
(UTC-07:00)

Amateur Radio Satellites - All Passes

Search period start: 03 August 2015 23:55
Search period end: 04 August 2015 23:55
Location: UBC Liquid-Mirror Observatory, 49.2876°N, 122.5728°W

Satellite Date Start Highest point End Downlink Frequencies (MHz)
Time Altitude Azimuth
YUBILEINY 03 Aug 23:59:16 00:07:14 43° 87° (E) 00:15:22 435.215
ESTCUBE 1 04 Aug 00:00:15 00:04:40 50° 261° (W) 00:09:06 437.505/2401.250
BEESAT 3 04 Aug 00:03:02 00:07:07 88° 308° (NW) 00:11:15 437.485
HUMSAT D 04 Aug 00:07:11 00:09:33 14° 273° (W) 00:11:47 437.325/437.525
TIGRISAT 04 Aug 00:09:38 00:14:21 80° 284° (WNW) 00:19:03 435.000
ANTELSAT 04 Aug 00:12:50 00:17:33 72° 287° (WNW) 00:22:15 437.575/2403.000
UKube-1 04 Aug 00:14:44 00:17:45 18° 270° (W) 00:20:41 .
SWISSCUBE 04 Aug 00:16:36 00:18:54 14° 55° (NE) 00:21:23 437.505
POLYITAN 1 04 Aug 00:22:52 00:27:08 63° 101° (ESE) 00:31:24 437.675
BUGSAT 1 04 Aug 00:25:59 00:29:51 41° 98° (E) 00:33:46 437.445
O/OREOS (USA 219) 04 Aug 00:27:28 00:29:26 13° 99° (E) 00:31:38 437.305
AIST 1 04 Aug 00:29:21 00:32:25 19° 273° (W) 00:35:22
AISAT 04 Aug 00:36:25 00:39:22 17° 271° (W) 00:42:10 437.250
M-CUBED/EXP-1 PRIME 04 Aug 00:36:31 00:40:25 24° 304° (NW) 00:44:11 437.505
ITUPSAT 1 04 Aug 00:38:03 00:41:17 19° 59° (ENE) 00:44:39 437.325
POPSAT HIP 1 04 Aug 00:38:37 00:42:55 88° 108° (ESE) 00:47:12 437.405
CUBEBUG 1 04 Aug 00:39:38 00:43:16 25° 267° (W) 00:46:49 437.445
50 SAT 04 Aug 00:40:46 00:42:13 11° 274° (W) 00:43:29 437.505
QB50P2 04 Aug 00:47:10 00:51:27 74° 286° (WNW) 00:55:42 145.880/145.840
TISAT 1 04 Aug 01:01:21 01:05:30 65° 258° (WSW) 01:09:41 437.305
SPROUT 04 Aug 01:02:30 01:06:34 42° 262° (W) 01:10:39 437.525
AUBIESAT-1 04 Aug 01:03:18 01:06:28 18° 308° (NW) 01:09:29 437.475
UNISAT 6 04 Aug 01:04:51 01:08:48 27° 296° (WNW) 01:12:41 437.425
BEESAT 2 04 Aug 01:06:09 01:09:58 35° 320° (NW) 01:13:48 435.950
Cosmos 2504 04 Aug 01:06:54 01:09:37 13° 71° (ENE) 01:12:52 435.465 / 435.565
DUCHIFAT 1 04 Aug 01:08:09 01:12:16 49° 289° (WNW) 01:16:22 145.980
NANOSAT C BR1 04 Aug 01:13:53 01:17:56 42° 290° (WNW) 01:21:57 145.865
QB50P1 04 Aug 01:14:00 01:18:03 42° 291° (WNW) 01:22:04 145.935-145.965
Oscar 19 04 Aug 01:16:15 01:18:17 12° 84° (E) 01:20:35 437.125/150
ISS 04 Aug 01:19:15 01:22:32 84° 17° (NNE) 01:25:49 145.825
AIST 2 04 Aug 01:21:55 01:26:11 80° 310° (NW) 01:30:29 435.215
BEESAT 04 Aug 01:30:24 01:35:01 49° 69° (ENE) 01:39:40 436.000
Cosmos 2491 04 Aug 01:31:38 01:38:39 27° 280° (W) 01:45:25 435.465 / 435.565
KKS-1 04 Aug 01:33:48 01:35:16 12° 56° (NE) 01:36:55 437.445
RS-15 04 Aug 01:34:08 01:44:27 39° 349° (NNW) 01:55:11 29.354- 29.394
BEESAT 3 04 Aug 01:42:36 01:45:38 19° 330° (NNW) 01:48:38 437.485
TIGRISAT 04 Aug 01:48:08 01:50:24 13° 303° (WNW) 01:52:30 435.000
SWISSCUBE 04 Aug 01:51:16 01:56:04 80° 72° (ENE) 02:00:54 437.505
ANTELSAT 04 Aug 01:51:38 01:53:35 12° 304° (NW) 01:55:19 437.575/2403.000
YUBILEINY 04 Aug 01:55:31 02:04:00 52° 290° (WNW) 02:12:31 435.215
POLYITAN 1 04 Aug 01:59:45 02:02:38 17° 299° (WNW) 02:05:25 437.675
BUGSAT 1 04 Aug 02:01:54 02:05:08 22° 296° (WNW) 02:08:18 437.445
O/OREOS (USA 219) 04 Aug 02:03:45 02:08:15 82° 297° (WNW) 02:12:49 437.305
ITUPSAT 1 04 Aug 02:13:54 02:18:42 72° 257° (WSW) 02:23:33 437.325
POPSAT HIP 1 04 Aug 02:16:07 02:18:13 13° 302° (WNW) 02:20:08 437.405
QB50P2 04 Aug 02:25:27 02:26:38 11° 304° (WNW) 02:27:37 145.880/145.840
STARS 04 Aug 02:32:45 02:36:15 24° 63° (ENE) 02:39:48 437.465
Gurwin Techsat 1B 04 Aug 02:39:53 02:43:59 23° 90° (E) 02:48:11 435.225
ITAMSAT 1 04 Aug 02:43:12 02:46:58 21° 90° (E) 02:50:53 435.822/435.867
BEESAT 2 04 Aug 02:47:25 02:49:11 12° 342° (NNW) 02:50:52 435.950
Cosmos 2504 04 Aug 02:53:04 03:00:11 63° 93° (E) 03:07:56 435.465 / 435.565
Oscar 19 04 Aug 02:53:22 02:58:35 81° 104° (ESE) 03:03:48 437.125/150
ISS 04 Aug 02:55:59 02:58:43 25° 216° (SW) 03:01:26 145.825
AIST 2 04 Aug 03:02:17 03:05:25 19° 332° (NNW) 03:08:30 435.215
KKS-1 04 Aug 03:06:47 03:11:12 76° 74° (ENE) 03:15:39 437.445
BEESAT 04 Aug 03:09:14 03:13:09 24° 268° (W) 03:16:58 436.000
SWISSCUBE 04 Aug 03:31:51 03:34:36 15° 273° (W) 03:37:09 437.505
JAS-2 04 Aug 03:44:53 03:52:13 42° 93° (E) 03:59:30 435.910
O/OREOS (USA 219) 04 Aug 03:45:44 03:48:30 15° 319° (NW) 03:51:10 437.305
RS-15 04 Aug 03:49:31 04:00:19 44° 22° (NNE) 04:11:39 29.354- 29.394
AO-7 04 Aug 03:51:17 03:57:10 22° 87° (E) 04:03:21 29.400- 29.500
YUBILEINY 04 Aug 03:59:10 04:03:38 14° 317° (NW) 04:07:41 435.215
HORYU 2 04 Aug 04:01:43 04:04:20 15° 88° (E) 04:07:06 437.375
STARS 04 Aug 04:08:18 04:12:28 43° 261° (W) 04:16:41 437.465
Gurwin Techsat 1B 04 Aug 04:19:10 04:24:25 60° 290° (WNW) 04:29:38 435.225
MOZHAYETS 4 04 Aug 04:21:13 04:25:45 58° 72° (ENE) 04:30:22
ITAMSAT 1 04 Aug 04:21:51 04:27:00 64° 289° (WNW) 04:32:06 435.822/435.867
Oscar 19 04 Aug 04:33:49 04:37:23 19° 303° (WNW) 04:40:50 437.125/150
GONETS M04 04 Aug 04:44:11 04:49:49 20° 76° (ENE) 04:55:50
KKS-1 04 Aug 04:46:06 04:48:27 14° 273° (W) 04:50:36 437.445
Cosmos 2504 04 Aug 04:46:32 04:53:04 32° 297° (WNW) 04:59:56 435.465 / 435.565
CUSAT 1 04 Aug 04:47:32 04:50:10 68° 284° (WNW) 04:52:48 437.405
CUBESAT XI-V 04 Aug 04:50:06 04:52:30 14° 58° (ENE) 04:55:03 437.345
DANDE 04 Aug 04:51:31 04:54:21 68° 101° (ESE) 04:56:57 436.750
BEESAT 3 04 Aug 05:03:15 05:04:50 12° 17° (NNE) 05:06:27 437.485
JAS-2 04 Aug 05:29:52 05:37:27 55° 294° (WNW) 05:44:56 435.910
HORYU 2 04 Aug 05:37:00 05:41:31 70° 287° (WNW) 05:46:00 437.375
AO-7 04 Aug 05:42:55 05:51:20 86° 109° (ESE) 05:59:40 29.400- 29.500
MOZHAYETS 4 04 Aug 06:00:00 06:03:24 19° 271° (W) 06:06:42
Gurwin Techsat 1B 04 Aug 06:01:24 06:03:28 12° 309° (NW) 06:05:17 435.225
RS-15 04 Aug 06:02:42 06:14:27 87° 52° (NE) 06:26:42 29.354- 29.394
Cosmos 2499 04 Aug 06:03:03 06:06:07 13° 71° (ENE) 06:09:45 435.465 / 435.565
PRISM 04 Aug 06:03:27 06:06:05 17° 60° (ENE) 06:08:48 437.425
ITAMSAT 1 04 Aug 06:03:28 06:05:36 12° 308° (NW) 06:07:32 435.822/435.867
BEESAT 2 04 Aug 06:05:36 06:08:36 19° 29° (NNE) 06:11:37 435.950
CUTE-I 04 Aug 06:15:15 06:18:09 15° 86° (E) 06:21:16 437.470
AIST 2 04 Aug 06:23:50 06:25:56 13° 19° (NNE) 06:28:05 435.215
CUBESAT XI-V 04 Aug 06:24:38 06:29:20 89° 54° (NE) 06:34:01 437.345
GONETS M04 04 Aug 06:36:47 06:45:28 83° 98° (E) 06:54:13
STRAND 1 04 Aug 06:39:07 06:44:01 47° 68° (ENE) 06:48:57 437.568
BEESAT 3 04 Aug 06:40:11 06:43:56 34° 40° (NE) 06:47:39 437.485
Cubesat XI-IV 04 Aug 06:59:06 07:03:56 35° 95° (E) 07:08:47 437.490
HORYU 2 04 Aug 07:15:59 07:17:24 11° 305° (NW) 07:18:37 437.375
JAS-2 04 Aug 07:16:26 07:21:01 17° 314° (NW) 07:25:20 435.910
AO-7 04 Aug 07:36:26 07:43:22 30° 311° (NW) 07:50:07 29.400- 29.500
PRISM 04 Aug 07:36:56 07:41:06 63° 258° (WSW) 07:45:15 437.425
BEESAT 2 04 Aug 07:43:07 07:47:15 88° 50° (NE) 07:51:17 435.950
PCSat 04 Aug 07:48:17 07:50:46 14° 105° (ESE) 07:53:31 145.827
Cosmos 2499 04 Aug 07:50:08 07:57:34 63° 93° (E) 08:05:41 435.465 / 435.565
CUTE-I 04 Aug 07:53:42 07:59:04 88° 286° (WNW) 08:04:24 437.470
AIST 2 04 Aug 08:01:37 08:05:38 40° 42° (NE) 08:09:35 435.215
CUBESAT XI-V 04 Aug 08:05:29 08:07:31 12° 275° (W) 08:09:21 437.345
GOMX 1 04 Aug 08:12:09 08:15:02 17° 89° (E) 08:18:09 467.674
RS-15 04 Aug 08:15:52 08:25:54 33° 253° (WSW) 08:35:52 29.354- 29.394
BEESAT 3 04 Aug 08:18:09 08:21:53 36° 240° (WSW) 08:25:33 437.485
BRITE-PL 04 Aug 08:18:34 08:22:23 28° 94° (E) 08:26:30 437.365/2234.400
STRAND 1 04 Aug 08:19:02 08:23:27 28° 267° (W) 08:27:48 437.568
M-CUBED/EXP-1 PRIME 04 Aug 08:19:33 08:22:47 21° 54° (NE) 08:26:17 437.505
CANX-2 04 Aug 08:35:25 08:37:33 14° 86° (E) 08:39:51 2200.000
GONETS M04 04 Aug 08:36:20 08:43:33 27° 302° (WNW) 08:50:36
Cubesat XI-IV 04 Aug 08:39:10 08:44:08 40° 294° (WNW) 08:49:02 437.490
AUBIESAT-1 04 Aug 08:44:48 08:48:32 29° 58° (ENE) 08:52:31 437.475
O/OREOS (USA 219) 04 Aug 08:52:48 08:54:19 12° 36° (NE) 08:55:59 437.305
SO-50 04 Aug 08:55:38 08:59:58 35° 119° (ESE) 09:04:27 436.795
CINEMA 3 04 Aug 09:04:28 09:07:25 17° 88° (E) 09:10:36 145.822/145.860
DOVE 4 04 Aug 09:20:08 09:24:35 44° 98° (E) 09:29:18 437.250
HO-68 04 Aug 09:22:14 09:29:00 43° 97° (E) 09:35:48 435.675
BEESAT 2 04 Aug 09:22:52 09:24:43 12° 249° (WSW) 09:26:22 435.950
PCSat 04 Aug 09:27:59 09:33:24 78° 124° (ESE) 09:38:52 145.827
COMPASS 1 04 Aug 09:31:19 09:34:59 28° 94° (E) 09:38:39 437.405
AO-7 04 Aug 09:31:41 09:33:30 11° 336° (NNW) 09:35:04 29.400- 29.500
CUTE-I 04 Aug 09:35:05 09:38:30 17° 305° (NW) 09:41:43 437.470
TIGRISAT 04 Aug 09:37:12 09:40:26 21° 61° (ENE) 09:43:50 435.000
AIST 2 04 Aug 09:40:22 09:44:07 31° 241° (WSW) 09:47:46 435.215
ANTELSAT 04 Aug 09:40:22 09:43:47 23° 62° (ENE) 09:47:22 437.575/2403.000
Cosmos 2499 04 Aug 09:44:29 09:51:24 34° 298° (WNW) 09:58:42 435.465 / 435.565
POLYITAN 1 04 Aug 09:47:21 09:48:39 11° 57° (ENE) 09:50:07 437.675
GOMX 1 04 Aug 09:49:06 09:53:37 68° 286° (WNW) 09:58:27 467.674
SEEDS 04 Aug 09:52:01 09:56:15 56° 100° (E) 10:00:26 437.485
M-CUBED/EXP-1 PRIME 04 Aug 09:52:57 09:57:08 61° 254° (WSW) 10:01:42 437.505
ZACube-1 04 Aug 09:53:10 09:55:36 14° 86° (E) 09:58:13 437.345
BRITE-PL 04 Aug 09:56:59 10:01:02 36° 291° (WNW) 10:05:17 437.365/2234.400
CUTE 1.7 + AOD 2 04 Aug 10:00:43 10:05:04 85° 103° (ESE) 10:09:22 437.475
POPSAT HIP 1 04 Aug 10:01:43 10:04:04 15° 60° (ENE) 10:06:33 437.405
YUBILEINY 04 Aug 10:03:32 10:10:47 28° 58° (ENE) 10:18:14 435.215
AAUSAT CUBESAT 2 04 Aug 10:09:15 10:13:26 58° 100° (E) 10:17:34 437.432
CANX-2 04 Aug 10:09:44 10:14:03 72° 285° (WNW) 10:18:19 2200.000
QB50P2 04 Aug 10:09:46 10:12:36 18° 62° (ENE) 10:15:34 145.880/145.840
FUNcube-1 04 Aug 10:12:27 10:15:54 21° 90° (E) 10:19:27 145.935
Oscar 11 04 Aug 10:18:39 10:22:39 35° 96° (E) 10:26:40 145.826/435.025
AUBIESAT-1 04 Aug 10:19:05 10:23:06 39° 258° (WSW) 10:27:22 437.475
UWE-3 04 Aug 10:23:59 10:28:13 35° 95° (E) 10:32:31 435.000/436.395/437.385
DUCHIFAT 1 04 Aug 10:29:24 10:32:48 25° 65° (ENE) 10:36:18 145.980
O/OREOS (USA 219) 04 Aug 10:30:23 10:34:53 54° 58° (ENE) 10:39:24 437.305
UNISAT 6 04 Aug 10:30:37 10:34:58 63° 72° (ENE) 10:39:28 437.425
NANOSAT C BR1 04 Aug 10:35:01 10:38:37 29° 66° (ENE) 10:42:17 145.865
QB50P1 04 Aug 10:35:17 10:38:55 29° 66° (ENE) 10:42:37 145.935-145.965
SO-50 04 Aug 10:35:46 10:40:26 46° 319° (NW) 10:45:14 436.795
CINEMA 3 04 Aug 10:40:24 10:45:07 71° 287° (WNW) 10:49:59 145.822/145.860
CUBEBUG 2 04 Aug 10:46:58 10:51:38 71° 102° (ESE) 10:56:23 437.445
Cosmos 2491 04 Aug 10:47:32 10:52:47 19° 75° (ENE) 10:58:25 435.465 / 435.565
DX 1 04 Aug 10:55:06 10:57:43 16° 89° (E) 11:00:29 434.975-435.025
DOVE 4 04 Aug 10:58:18 11:02:12 27° 294° (WNW) 11:06:12 437.250
DELFI C3 04 Aug 11:04:55 11:09:00 71° 103° (ESE) 11:13:02 145.870
COMPASS 1 04 Aug 11:06:51 11:10:41 33° 292° (WNW) 11:14:26 437.405
HO-68 04 Aug 11:10:01 11:16:52 48° 298° (WNW) 11:23:38 435.675
TIGRISAT 04 Aug 11:12:32 11:16:50 54° 260° (W) 11:21:17 435.000
PCSat 04 Aug 11:12:49 11:17:25 27° 325° (NW) 11:22:00 145.827
ANTELSAT 04 Aug 11:16:00 11:20:17 49° 261° (W) 11:24:42 437.575/2403.000
POLYITAN 1 04 Aug 11:19:41 11:23:52 81° 77° (ENE) 11:28:08 437.675
BUGSAT 1 04 Aug 11:19:54 11:23:48 50° 71° (ENE) 11:27:44 437.445
VELOX 1 04 Aug 11:23:01 11:26:05 19° 90° (E) 11:29:18 145.980
AIST 1 04 Aug 11:25:24 11:28:44 22° 88° (E) 11:32:09
ZACube-1 04 Aug 11:27:58 11:32:32 76° 286° (WNW) 11:37:07 437.345
SEEDS 04 Aug 11:28:39 11:31:40 19° 298° (WNW) 11:34:35 437.485
GOMX 1 04 Aug 11:29:56 11:31:06 11° 303° (WNW) 11:32:05 467.674
POPSAT HIP 1 04 Aug 11:35:15 11:39:26 73° 257° (WSW) 11:43:40 437.405
CUTE 1.7 + AOD 2 04 Aug 11:38:10 11:40:24 14° 301° (WNW) 11:42:29 437.475
QB50P2 04 Aug 11:43:58 11:48:07 57° 259° (W) 11:52:18 145.880/145.840
HUMSAT D 04 Aug 11:44:22 11:48:43 72° 102° (ESE) 11:53:03 437.325/437.525
AAUSAT CUBESAT 2 04 Aug 11:45:46 11:48:39 18° 298° (WNW) 11:51:25 437.432
FUNcube-1 04 Aug 11:48:05 11:52:31 51° 289° (WNW) 11:56:57 145.935
CANX-2 04 Aug 11:48:13 11:49:14 11° 304° (NW) 11:50:03 2200.000
ESTCUBE 1 04 Aug 11:48:59 11:52:40 25° 92° (E) 11:56:25 437.505/2401.250
Oscar 11 04 Aug 11:54:58 11:58:46 29° 294° (WNW) 12:02:29 145.826/435.025
UKube-1 04 Aug 11:56:10 12:00:26 56° 101° (E) 12:04:40 .
YUBILEINY 04 Aug 11:59:56 12:08:49 82° 262° (W) 12:17:39 435.215
UWE-3 04 Aug 12:00:35 12:04:42 32° 293° (WNW) 12:08:49 435.000/436.395/437.385
DUCHIFAT 1 04 Aug 12:04:33 12:08:28 38° 263° (W) 12:12:24 145.980
50 SAT 04 Aug 12:08:44 12:12:43 63° 101° (E) 12:16:39 437.505
UNISAT 6 04 Aug 12:09:21 12:12:16 17° 272° (W) 12:15:06 437.425
O/OREOS (USA 219) 04 Aug 12:10:30 12:14:00 21° 257° (WSW) 12:17:24 437.305
NANOSAT C BR1 04 Aug 12:10:35 12:14:24 32° 264° (W) 12:18:12 145.865
QB50P1 04 Aug 12:10:57 12:14:44 32° 265° (W) 12:18:32 145.935-145.965
SO-50 04 Aug 12:18:53 12:22:11 17° 342° (NNW) 12:25:29 436.795
CINEMA 3 04 Aug 12:19:44 12:21:36 12° 304° (WNW) 12:23:19 145.822/145.860
AISAT 04 Aug 12:20:42 12:25:08 69° 102° (ESE) 12:29:32 437.250
CUBEBUG 1 04 Aug 12:23:14 12:27:23 43° 98° (E) 12:31:32 437.445
CUBEBUG 2 04 Aug 12:24:41 12:27:52 18° 299° (WNW) 12:30:59 437.445
Gurwin Techsat 1B 04 Aug 12:30:08 12:31:01 11° 50° (NE) 12:32:09 435.225
DX 1 04 Aug 12:30:08 12:34:27 63° 288° (WNW) 12:38:44 434.975-435.025
Cosmos 2504 04 Aug 12:33:37 12:40:44 30° 61° (ENE) 12:48:12 435.465 / 435.565
Oscar 19 04 Aug 12:36:16 12:40:35 29° 63° (ENE) 12:44:59 437.125/150
Cosmos 2491 04 Aug 12:39:36 12:48:19 77° 96° (E) 12:57:04 435.465 / 435.565
DELFI C3 04 Aug 12:41:17 12:43:35 14° 300° (WNW) 12:45:44 145.870
TISAT 1 04 Aug 12:42:44 12:45:04 15° 88° (E) 12:47:34 437.305
SPROUT 04 Aug 12:44:59 12:48:32 25° 93° (E) 12:52:08 437.525
BUGSAT 1 04 Aug 12:56:51 12:59:37 17° 270° (W) 13:02:15 437.445
VELOX 1 04 Aug 12:58:41 13:03:01 54° 289° (WNW) 13:07:19 145.980
POLYITAN 1 04 Aug 12:58:46 13:00:26 12° 274° (W) 13:01:54 437.675
HO-68 04 Aug 12:59:42 13:03:03 14° 319° (NW) 13:06:07 435.675
PCSat 04 Aug 13:00:23 13:02:46 13° 350° (N) 13:05:07 145.827
AIST 1 04 Aug 13:02:05 13:06:11 40° 287° (WNW) 13:10:16
ZACube-1 04 Aug 13:06:18 13:08:12 12° 303° (WNW) 13:09:54 437.345
AO-7 04 Aug 13:07:02 13:11:17 15° 34° (NE) 13:15:46 29.400- 29.500
HUMSAT D 04 Aug 13:21:16 13:23:58 16° 300° (WNW) 13:26:31 437.325/437.525
ESTCUBE 1 04 Aug 13:25:27 13:29:43 41° 291° (WNW) 13:33:55 437.505/2401.250
UKube-1 04 Aug 13:33:04 13:36:13 19° 299° (WNW) 13:39:16 .
CUSAT 1 04 Aug 13:34:53 13:37:02 14° 65° (ENE) 13:39:39 437.405
50 SAT 04 Aug 13:44:24 13:46:51 16° 299° (WNW) 13:49:10 437.505
SWISSCUBE 04 Aug 13:48:42 13:51:23 15° 87° (E) 13:54:15 437.505
YUBILEINY 04 Aug 13:58:20 14:04:25 20° 284° (WNW) 14:10:08 435.215
AISAT 04 Aug 13:58:21 14:01:15 17° 300° (WNW) 14:04:02 437.250
CUBEBUG 1 04 Aug 14:00:02 14:03:32 24° 296° (WNW) 14:06:56 437.445
SO-50 04 Aug 14:01:59 14:04:37 14° 6° (N) 14:07:17 436.795
JAS-2 04 Aug 14:02:02 14:07:30 29° 56° (NE) 14:13:38 435.910
Gurwin Techsat 1B 04 Aug 14:04:49 14:09:57 52° 69° (ENE) 14:15:08 435.225
ITAMSAT 1 04 Aug 14:04:53 14:09:51 47° 68° (ENE) 14:14:52 435.822/435.867
ITUPSAT 1 04 Aug 14:10:54 14:14:33 22° 91° (E) 14:18:18 437.325
Oscar 19 04 Aug 14:14:49 14:19:46 47° 261° (W) 14:24:44 437.125/150
TISAT 1 04 Aug 14:17:07 14:21:19 65° 287° (WNW) 14:25:29 437.305
SPROUT 04 Aug 14:20:43 14:24:45 39° 291° (WNW) 14:28:45 437.525
Cosmos 2504 04 Aug 14:25:25 14:33:51 76° 264° (W) 14:42:27 435.465 / 435.565
Cosmos 2491 04 Aug 14:38:43 14:46:15 30° 301° (WNW) 14:53:35 435.465 / 435.565
PCSat 04 Aug 14:45:45 14:48:35 14° 16° (NNE) 14:51:27 145.827
GONETS M04 04 Aug 14:46:35 14:50:42 14° 43° (NE) 14:55:16
AO-7 04 Aug 14:54:22 15:02:08 46° 58° (ENE) 15:09:59 29.400- 29.500
KKS-1 04 Aug 14:56:03 14:57:09 11° 85° (E) 14:58:31 437.445
HORYU 2 04 Aug 15:03:38 15:07:13 25° 63° (ENE) 15:10:54 437.375
BEESAT 04 Aug 15:03:53 15:08:40 66° 102° (ESE) 15:13:24 436.000
CUSAT 1 04 Aug 15:15:35 15:19:49 83° 260° (W) 15:25:31 437.405
DANDE 04 Aug 15:23:22 15:27:10 78° 78° (ENE) 15:32:18 436.750
SWISSCUBE 04 Aug 15:25:05 15:29:53 76° 287° (WNW) 15:34:37 437.505
SO-50 04 Aug 15:42:37 15:46:49 26° 30° (NNE) 15:50:59 436.795
ITAMSAT 1 04 Aug 15:45:06 15:49:36 28° 267° (W) 15:54:02 435.822/435.867
JAS-2 04 Aug 15:45:33 15:51:57 72° 258° (WSW) 15:59:15 435.910
Gurwin Techsat 1B 04 Aug 15:45:48 15:50:16 26° 268° (W) 15:54:39 435.225
ITUPSAT 1 04 Aug 15:48:07 15:52:48 53° 290° (WNW) 15:57:26 437.325
STARS 04 Aug 15:53:50 15:57:29 25° 93° (E) 16:01:12 437.465
MOZHAYETS 4 04 Aug 16:15:18 16:15:38 10° 83° (E) 16:16:14
Cosmos 2504 04 Aug 16:19:19 16:24:53 19° 284° (WNW) 16:30:08 435.465 / 435.565
PCSat 04 Aug 16:28:43 16:33:41 35° 40° (NE) 16:38:38 145.827
KKS-1 04 Aug 16:30:04 16:34:34 87° 106° (ESE) 16:39:03 437.445
HORYU 2 04 Aug 16:39:21 16:43:39 44° 261° (W) 16:47:58 437.375
GONETS M04 04 Aug 16:41:47 16:50:16 53° 71° (ENE) 16:58:48
BEESAT 04 Aug 16:42:36 16:46:05 20° 300° (WNW) 16:49:26 436.000
AO-7 04 Aug 16:46:43 16:54:53 54° 259° (W) 17:03:03 29.400- 29.500
Cubesat XI-IV 04 Aug 16:48:02 16:51:10 16° 55° (NE) 16:54:28 437.490
CUSAT 1 04 Aug 17:00:53 17:02:12 11° 270° (W) 17:03:17 437.405
SWISSCUBE 04 Aug 17:04:46 17:07:00 13° 305° (NW) 17:09:03 437.505
DANDE 04 Aug 17:08:38 17:10:12 11° 268° (W) 17:11:39 436.750
SO-50 04 Aug 17:22:56 17:27:57 83° 232° (SW) 17:32:50 436.795
STARS 04 Aug 17:29:55 17:34:05 41° 292° (WNW) 17:38:14 437.465
JAS-2 04 Aug 17:35:05 17:38:43 14° 283° (WNW) 17:42:10 435.910
Cosmos 2499 04 Aug 17:35:27 17:43:08 34° 62° (ENE) 17:51:04 435.465 / 435.565
CUTE-I 04 Aug 17:40:30 17:45:23 38° 65° (ENE) 17:50:19 437.470
MOZHAYETS 4 04 Aug 17:49:06 17:53:46 78° 102° (ESE) 17:58:22
KKS-1 04 Aug 18:08:10 18:10:37 14° 302° (WNW) 18:12:55 437.445
PCSat 04 Aug 18:12:04 18:17:22 54° 242° (WSW) 18:22:37 145.827
HO-68 04 Aug 18:12:21 18:15:36 14° 41° (NE) 18:19:08 435.675
CUBESAT XI-V 04 Aug 18:18:10 18:21:05 17° 88° (E) 18:24:08 437.345
Cubesat XI-IV 04 Aug 18:25:11 18:30:34 83° 74° (ENE) 18:35:58 437.490
GONETS M04 04 Aug 18:38:59 18:47:01 42° 273° (W) 18:54:58
AO-7 04 Aug 18:47:49 18:50:02 11° 283° (WNW) 18:51:34 29.400- 29.500
STRAND 1 04 Aug 18:47:57 18:49:03 11° 83° (E) 18:50:27 437.568
VERMONT LUNAR 04 Aug 19:00:48 19:02:55 17° 176° (S) 19:05:04 437.305
SO-50 04 Aug 19:05:04 19:07:48 14° 250° (WSW) 19:10:19 436.795
PRISM 04 Aug 19:16:31 19:18:25 13° 88° (E) 19:20:29 437.425
CUTE-I 04 Aug 19:20:31 19:25:30 37° 264° (W) 19:30:27 437.470
CUTE 1.7 + AOD 2 04 Aug 19:24:01 19:26:14 14° 59° (ENE) 19:28:35 437.475
GOMX 1 04 Aug 19:24:53 19:28:14 25° 65° (ENE) 19:31:40 467.674
MOZHAYETS 4 04 Aug 19:27:32 19:30:27 16° 301° (WNW) 19:33:13
Cosmos 2499 04 Aug 19:28:22 19:37:06 71° 265° (W) 19:45:54 435.465 / 435.565
CANX-2 04 Aug 19:32:16 19:35:09 18° 62° (ENE) 19:38:09 2200.000
BRITE-PL 04 Aug 19:34:00 19:38:05 48° 71° (ENE) 19:42:06 437.365/2234.400
ISS 04 Aug 19:39:41 19:40:30 11° 136° (SE) 19:41:25 145.825
CUBESAT XI-V 04 Aug 19:54:27 19:59:02 65° 288° (WNW) 20:03:34 437.345
HO-68 04 Aug 19:55:02 20:01:50 50° 63° (ENE) 20:08:42 435.675
Cubesat XI-IV 04 Aug 20:08:01 20:11:26 16° 274° (W) 20:14:39 437.490
CINEMA 3 04 Aug 20:10:40 20:13:52 22° 63° (ENE) 20:17:14 145.822/145.860
CUBEBUG 2 04 Aug 20:15:31 20:17:32 13° 58° (ENE) 20:19:45 437.445
PHONESAT 2.4 04 Aug 20:20:54 20:23:15 17° 169° (S) 20:25:38 2401.200-2431.200
STRAND 1 04 Aug 20:24:09 20:29:18 74° 103° (ESE) 20:34:23 437.568
DELFI C3 04 Aug 20:24:52 20:25:20 10° 57° (ENE) 20:26:00 145.870
COMPASS 1 04 Aug 20:26:19 20:30:07 34° 68° (ENE) 20:33:59 437.405
DOVE 4 04 Aug 20:30:19 20:34:25 67° 73° (ENE) 20:38:38 437.250
RS-15 04 Aug 20:32:53 20:42:04 35° 107° (ESE) 20:51:49 29.354- 29.394
VERMONT LUNAR 04 Aug 20:37:10 20:38:57 14° 192° (SSW) 20:40:43 437.305
SEEDS 04 Aug 20:47:44 20:51:58 67° 74° (ENE) 20:56:14 437.485
Cosmos 2491 04 Aug 20:49:51 20:53:21 13° 41° (NE) 20:57:17 435.465 / 435.565
PRISM 04 Aug 20:50:17 20:54:24 70° 287° (WNW) 20:58:27 437.425
ZACube-1 04 Aug 20:53:16 20:56:13 19° 61° (ENE) 20:59:20 437.345
CUTE 1.7 + AOD 2 04 Aug 20:57:18 21:01:35 81° 257° (WSW) 21:05:56 437.475
GOMX 1 04 Aug 21:02:26 21:06:18 36° 264° (W) 21:10:10 467.674
AAUSAT CUBESAT 2 04 Aug 21:03:38 21:07:50 67° 73° (ENE) 21:12:03 437.432
CANX-2 04 Aug 21:06:26 21:10:41 60° 260° (W) 21:14:58 2200.000
HUMSAT D 04 Aug 21:07:27 21:08:58 12° 57° (ENE) 21:10:40 437.325/437.525
FUNcube-1 04 Aug 21:12:19 21:15:53 27° 65° (ENE) 21:19:34 145.935
ISS 04 Aug 21:13:11 21:16:22 52° 153° (SSE) 21:19:33 145.825
BRITE-PL 04 Aug 21:13:57 21:16:58 18° 270° (W) 21:19:50 437.365/2234.400
Oscar 11 04 Aug 21:17:14 21:21:22 45° 70° (ENE) 21:25:34 145.826/435.025
UKube-1 04 Aug 21:22:01 21:23:36 12° 56° (NE) 21:25:22 .
Cosmos 2499 04 Aug 21:23:26 21:28:55 18° 285° (WNW) 21:33:59 435.465 / 435.565
UWE-3 04 Aug 21:25:13 21:29:16 44° 69° (ENE) 21:33:27 435.000/436.395/437.385
CUBESAT XI-V 04 Aug 21:34:40 21:35:39 10° 306° (NW) 21:36:25 437.345
HO-68 04 Aug 21:43:04 21:49:45 41° 264° (W) 21:56:26 435.675
CINEMA 3 04 Aug 21:46:48 21:50:49 45° 262° (W) 21:55:00 145.822/145.860
AISAT 04 Aug 21:48:18 21:50:42 15° 58° (ENE) 21:53:16 437.250
CUBEBUG 2 04 Aug 21:49:21 21:53:35 87° 254° (WSW) 21:58:01 437.445
DX 1 04 Aug 21:54:27 21:57:56 25° 63° (ENE) 22:01:29 434.975-435.025
DELFI C3 04 Aug 21:55:39 21:59:43 76° 75° (ENE) 22:03:49 145.870
AUBIESAT-1 04 Aug 21:56:55 21:58:53 13° 90° (E) 22:01:02 437.475
PHONESAT 2.4 04 Aug 21:57:59 22:00:32 19° 186° (S) 22:03:04 2401.200-2431.200
COMPASS 1 04 Aug 22:02:08 22:05:50 28° 266° (W) 22:09:30 437.405
STRAND 1 04 Aug 22:04:20 22:08:00 20° 302° (WNW) 22:11:33 437.568
DOVE 4 04 Aug 22:10:38 22:12:48 13° 274° (W) 22:14:49 437.250
BEESAT 3 04 Aug 22:15:45 22:17:50 14° 112° (ESE) 22:20:05 437.485
UNISAT 6 04 Aug 22:20:46 22:21:48 11° 83° (E) 22:23:04 437.425
VELOX 1 04 Aug 22:24:23 22:28:09 29° 65° (ENE) 22:31:58 145.980
SEEDS 04 Aug 22:25:48 22:28:16 15° 273° (W) 22:30:35 437.485
ZACube-1 04 Aug 22:28:00 22:32:12 57° 260° (W) 22:36:32 437.345
HUMSAT D 04 Aug 22:39:52 22:44:03 85° 72° (ENE) 22:48:20 437.325/437.525
AAUSAT CUBESAT 2 04 Aug 22:41:34 22:43:56 14° 273° (W) 22:46:09 437.432
RS-15 04 Aug 22:42:27 22:53:29 81° 312° (NW) 23:05:01 29.354- 29.394
Cosmos 2491 04 Aug 22:44:46 22:53:09 48° 69° (ENE) 23:01:33 435.465 / 435.565
FUNcube-1 04 Aug 22:48:06 22:52:04 37° 264° (W) 22:56:08 145.935
ISS 04 Aug 22:49:34 22:52:48 59° 352° (N) 22:56:03 145.825
ESTCUBE 1 04 Aug 22:52:24 22:56:35 38° 68° (ENE) 23:00:48 437.505/2401.250
Oscar 11 04 Aug 22:54:23 22:57:48 22° 269° (W) 23:01:09 145.826/435.025
UKube-1 04 Aug 22:54:45 22:59:05 82° 72° (ENE) 23:03:25 .
50 SAT 04 Aug 22:56:09 23:00:00 62° 73° (ENE) 23:03:56 437.505
TIGRISAT 04 Aug 23:00:08 23:03:58 25° 92° (E) 23:07:52 435.000
UWE-3 04 Aug 23:02:42 23:06:03 22° 270° (W) 23:09:24 435.000/436.395/437.385
ANTELSAT 04 Aug 23:03:42 23:07:42 27° 93° (E) 23:11:45 437.575/2403.000
POLYITAN 1 04 Aug 23:03:49 23:04:10 10° 84° (E) 23:04:46 437.675
M-CUBED/EXP-1 PRIME 04 Aug 23:04:20 23:09:07 59° 106° (ESE) 23:13:45 437.505
AIST 1 04 Aug 23:04:27 23:08:44 76° 78° (ENE) 23:13:00
YUBILEINY 04 Aug 23:11:44 23:18:16 25° 79° (E) 23:25:07 435.215
POPSAT HIP 1 04 Aug 23:17:29 23:19:42 14° 87° (E) 23:22:06 437.405
BEESAT 2 04 Aug 23:17:50 23:21:41 41° 121° (ESE) 23:25:36 435.950
AISAT 04 Aug 23:22:21 23:26:45 80° 256° (WSW) 23:31:10 437.250
CUBEBUG 1 04 Aug 23:23:10 23:27:27 62° 73° (ENE) 23:31:46 437.445
QB50P2 04 Aug 23:25:48 23:28:40 18° 90° (E) 23:31:38 145.880/145.840
AUBIESAT-1 04 Aug 23:29:34 23:34:22 86° 114° (ESE) 23:38:58 437.475
DX 1 04 Aug 23:29:51 23:33:59 42° 261° (W) 23:38:08 434.975-435.025
CUBEBUG 2 04 Aug 23:30:36 23:31:09 10° 277° (W) 23:31:27 437.445
DELFI C3 04 Aug 23:33:40 23:35:22 12° 274° (W) 23:36:54 145.870
PHONESAT 2.4 04 Aug 23:37:16 23:37:43 10° 202° (SSW) 23:38:04 2401.200-2431.200
TISAT 1 04 Aug 23:38:44 23:41:45 20° 62° (ENE) 23:44:52 437.305
AIST 2 04 Aug 23:42:25 23:45:28 20° 115° (ESE) 23:48:38 435.215
SPROUT 04 Aug 23:43:03 23:46:51 32° 67° (ENE) 23:50:42 437.525
DUCHIFAT 1 04 Aug 23:44:56 23:48:27 25° 93° (E) 23:52:01 145.980
